Change the Weather History Date:

Saturday, January 12, 2013

  Actual Average Record
Temperature  
Mean Temperature 21 °F -  
Max Temperature 32 °F 23 °F 44 °F (2003)
Min Temperature 8 °F 8 °F -7 °F (2015)
Degree Days  
Heating Degree Days 44    
Moisture  
Dew Point 9 °F    
Average Humidity 71    
Maximum Humidity 100    
Minimum Humidity 58    
Precipitation  
Precipitation 0.00 in - - ()
Sea Level Pressure  
Sea Level Pressure 29.91 in    
Wind  
Wind Speed 22 mph (WNW)    
Max Wind Speed 32 mph    
Max Gust Speed 39 mph    
Visibility 10 miles    
Events Rain , Snow    
Averages and records for this station are not official NWS values.
T = Trace of Precipitation, MM = Missing Value Source: NWS Daily Summary

Daily Weather History Graph

Daily Weather History Graph

Search for Another Location

Airport or City:

Trip Planner

Search our weather history database for the weather conditions in past years. The results will help you decide how hot, cold, wet, or windy it might be!

Date:

Astronomy

Jan. 12, 2013 Rise Set
Actual Time 7:46 AM CST 5:04 PM CST
Civil Twilight 7:15 AM CST 5:36 PM CST
Nautical Twilight 6:40 AM CST 6:11 PM CST
Astronomical Twilight 6:05 AM CST 6:45 PM CST
Moon 8:03 AM CST (1/12) 6:37 PM CST (1/12)
Length of Visible Light 10h 20m
Length of Day
9h 17m
New Moon, 1% of the Moon is Illuminated
Jan 12
New Moon
Jan 18
First Quarter
Jan 26
Full
Feb 3
Last Quarter
Feb 10
New

Hourly Weather History & Observations

Time (CST) Temp. Windchill Dew Point Humidity Pressure Visibility Wind Dir Wind Speed Gust Speed Precip Events Conditions
12:15 AM 32.0 °F 18.6 °F 30.2 °F 93% 29.53 in 10.0 mi West 25.3 mph 32.2 mph N/A Snow Light Snow
12:35 AM 30.2 °F 16.5 °F 30.2 °F 100% 29.54 in 10.0 mi WSW 24.2 mph - N/A Snow Light Snow
12:55 AM 30.2 °F 17.4 °F 28.4 °F 93% 29.55 in 10.0 mi WSW 20.7 mph 27.6 mph N/A Snow Light Snow
1:15 AM 28.4 °F 13.0 °F 26.6 °F 93% 29.58 in 10.0 mi West 28.8 mph 35.7 mph N/A Snow Light Snow
1:35 AM 26.6 °F 11.7 °F 24.8 °F 93% 29.60 in 10.0 mi West 24.2 mph 36.8 mph N/A Snow Light Snow
1:55 AM 26.6 °F 9.8 °F 23.0 °F 86% 29.62 in 10.0 mi West 32.2 mph 39.1 mph N/A Snow Light Snow
2:15 AM 26.6 °F 10.3 °F 21.2 °F 80% 29.65 in 10.0 mi West 29.9 mph 38.0 mph N/A Snow Light Snow
2:35 AM 24.8 °F 8.1 °F 21.2 °F 86% 29.68 in 10.0 mi West 28.8 mph 34.5 mph N/A Snow Light Snow
2:55 AM 24.8 °F 7.6 °F 19.4 °F 80% 29.68 in 10.0 mi West 31.1 mph 38.0 mph N/A Snow Light Snow
3:15 AM 23.0 °F 5.7 °F 19.4 °F 86% 29.70 in 6.0 mi West 28.8 mph 36.8 mph N/A Snow Light Snow
3:35 AM 23.0 °F 5.7 °F 17.6 °F 80% 29.72 in 6.0 mi West 28.8 mph - N/A Snow Light Snow
3:55 AM 21.2 °F 3.0 °F 14.0 °F 74% 29.74 in 10.0 mi West 29.9 mph 35.7 mph N/A Snow Light Snow
4:15 AM 19.4 °F 0.8 °F 14.0 °F 80% 29.75 in 3.0 mi West 28.8 mph 38.0 mph N/A Snow Light Snow
4:35 AM 19.4 °F 1.4 °F 12.2 °F 74% 29.77 in 10.0 mi West 26.5 mph 34.5 mph N/A Snow Light Snow
4:55 AM 17.6 °F -2.5 °F 10.4 °F 73% 29.79 in 10.0 mi West 32.2 mph 38.0 mph N/A Snow Light Snow
5:15 AM 17.6 °F 0.1 °F 10.4 °F 73% 29.79 in 10.0 mi West 23.0 mph 34.5 mph N/A Snow Light Snow
5:35 AM 17.6 °F -0.3 °F 10.4 °F 73% 29.80 in 10.0 mi West 24.2 mph 32.2 mph N/A Snow Light Snow
5:55 AM 17.6 °F -1.9 °F 10.4 °F 73% 29.82 in 10.0 mi West 29.9 mph 35.7 mph N/A Snow Light Snow
6:15 AM 15.8 °F -3.1 °F 8.6 °F 73% 29.83 in 8.0 mi West 25.3 mph 33.4 mph N/A Snow Light Snow
6:35 AM 15.8 °F -0.6 °F 6.8 °F 68% 29.86 in 10.0 mi West 18.4 mph 29.9 mph N/A Snow Light Snow
6:55 AM 15.8 °F -0.6 °F 6.8 °F 68% 29.87 in - West 18.4 mph 26.5 mph N/A Snow Light Snow
7:15 AM 15.8 °F -1.5 °F 6.8 °F 68% 29.87 in 10.0 mi West 20.7 mph 27.6 mph N/A Snow Light Snow
7:35 AM 15.8 °F -0.2 °F 8.6 °F 73% 29.89 in 10.0 mi West 17.3 mph - N/A Snow Light Snow
7:55 AM 15.8 °F -0.2 °F 8.6 °F 73% 29.89 in 10.0 mi West 17.3 mph 24.2 mph N/A Snow Light Snow
8:15 AM 15.8 °F -1.9 °F 8.6 °F 73% 29.90 in 10.0 mi West 21.9 mph - N/A Snow Light Snow
8:35 AM 15.8 °F -1.5 °F 8.6 °F 73% 29.90 in 10.0 mi West 20.7 mph - N/A Snow Light Snow
8:55 AM 15.8 °F -1.1 °F 8.6 °F 73% 29.91 in 10.0 mi WNW 19.6 mph 26.5 mph N/A Snow Light Snow
9:15 AM 15.8 °F -0.6 °F 6.8 °F 68% 29.93 in 10.0 mi West 18.4 mph - N/A Snow Light Snow
9:35 AM 15.8 °F 0.3 °F 8.6 °F 73% 29.94 in 9.0 mi West 16.1 mph 24.2 mph N/A Snow Light Snow
9:55 AM 15.8 °F -0.6 °F 8.6 °F 73% 29.94 in 10.0 mi West 18.4 mph 24.2 mph N/A Snow Light Snow
10:15 AM 15.8 °F 0.9 °F 8.6 °F 73% 29.97 in 10.0 mi West 15.0 mph 23.0 mph N/A Snow Light Snow
10:35 AM 17.6 °F 0.9 °F 8.6 °F 68% 29.96 in 10.0 mi WSW 20.7 mph - N/A Snow Light Snow
10:55 AM 17.6 °F 1.3 °F 6.8 °F 63% 29.98 in 10.0 mi West 19.6 mph - N/A Snow Light Snow
11:15 AM 15.8 °F -0.2 °F 6.8 °F 68% 29.97 in 9.0 mi West 17.3 mph - N/A   Overcast
11:55 AM 17.6 °F -0.6 °F 5.0 °F 58% 29.97 in 10.0 mi West 25.3 mph - N/A Snow Light Snow
12:15 PM 17.6 °F -0.6 °F 6.8 °F 63% 29.98 in 10.0 mi West 25.3 mph 32.2 mph N/A Snow Light Snow
12:35 PM 17.6 °F -1.0 °F 6.8 °F 63% 29.97 in 10.0 mi West 26.5 mph - N/A Snow Light Snow
12:55 PM 17.6 °F 0.5 °F 6.8 °F 63% 29.96 in 10.0 mi West 21.9 mph 29.9 mph N/A Snow Light Snow
1:15 PM 19.4 °F 2.5 °F 6.8 °F 58% 29.96 in 10.0 mi WNW 23.0 mph - N/A Snow Light Snow
1:35 PM 17.6 °F 1.3 °F 6.8 °F 63% 29.97 in 10.0 mi West 19.6 mph 25.3 mph N/A Snow Light Snow
1:55 PM 17.6 °F 2.2 °F 6.8 °F 63% 29.97 in 10.0 mi West 17.3 mph 26.5 mph N/A   Overcast
2:15 PM 17.6 °F 1.7 °F 6.8 °F 63% 29.98 in 10.0 mi West 18.4 mph 25.3 mph N/A Snow Light Snow
2:35 PM 17.6 °F 1.7 °F 6.8 °F 63% 29.98 in 10.0 mi West 18.4 mph 24.2 mph N/A   Overcast
2:55 PM 17.6 °F 1.7 °F 6.8 °F 63% 29.97 in 9.0 mi West 18.4 mph - N/A   Overcast
3:15 PM 15.8 °F -1.1 °F 6.8 °F 68% 29.98 in 10.0 mi WNW 19.6 mph 27.6 mph N/A Snow Light Snow
3:35 PM 15.8 °F -1.9 °F 3.2 °F 58% 30.00 in 10.0 mi NW 21.9 mph - N/A   Overcast
3:55 PM 15.8 °F 0.9 °F 5.0 °F 62% 30.01 in 10.0 mi WNW 15.0 mph - N/A Snow Light Snow
4:15 PM 15.8 °F 0.9 °F 5.0 °F 62% 30.01 in 10.0 mi NW 15.0 mph 23.0 mph N/A   Overcast
4:35 PM 14.0 °F -3.4 °F 3.2 °F 62% 30.01 in 10.0 mi WNW 19.6 mph - N/A   Mostly Cloudy
4:55 PM 14.0 °F -0.8 °F 3.2 °F 62% 30.02 in 10.0 mi WNW 13.8 mph 20.7 mph N/A   Scattered Clouds
5:15 PM 14.0 °F 1.2 °F 3.2 °F 62% 30.03 in 10.0 mi WNW 10.4 mph 16.1 mph N/A   Mostly Cloudy
5:35 PM 14.0 °F -0.8 °F 3.2 °F 62% 30.02 in 10.0 mi NW 13.8 mph - N/A   Overcast
6:15 PM 14.0 °F -0.8 °F 5.0 °F 67% 30.03 in 10.0 mi NW 13.8 mph - N/A   Overcast
6:35 PM 14.0 °F 1.2 °F 3.2 °F 62% 30.02 in 10.0 mi NW 10.4 mph 18.4 mph N/A   Overcast
6:55 PM 14.0 °F -0.2 °F 3.2 °F 62% 30.04 in 10.0 mi NW 12.7 mph - N/A   Overcast
7:15 PM 12.2 °F -3.1 °F 3.2 °F 67% 30.05 in 10.0 mi NW 13.8 mph - N/A   Overcast
7:35 PM 12.2 °F -2.5 °F 3.2 °F 67% 30.08 in 10.0 mi West 12.7 mph - N/A Snow Light Snow
7:55 PM 12.2 °F -1.0 °F 3.2 °F 67% 30.07 in 10.0 mi WNW 10.4 mph - N/A Snow Light Snow
8:15 PM 12.2 °F -1.8 °F 3.2 °F 67% 30.05 in 10.0 mi WNW 11.5 mph 17.3 mph N/A   Overcast
8:35 PM 12.2 °F -0.2 °F 3.2 °F 67% 30.06 in 10.0 mi WNW 9.2 mph 17.3 mph N/A   Overcast
8:55 PM 12.2 °F -3.1 °F 1.4 °F 62% 30.04 in 10.0 mi NW 13.8 mph 19.6 mph N/A   Mostly Cloudy
9:15 PM 12.2 °F -3.1 °F 3.2 °F 67% 30.05 in 10.0 mi NW 13.8 mph - N/A Rain Light Freezing Rain
9:35 PM 10.4 °F -6.0 °F 3.2 °F 73% 30.04 in 10.0 mi WNW 15.0 mph - N/A   Mostly Cloudy
9:55 PM 10.4 °F -5.4 °F 3.2 °F 73% 30.02 in 10.0 mi NW 13.8 mph - N/A   Mostly Cloudy
10:15 PM 10.4 °F -4.1 °F 1.4 °F 67% 30.03 in 10.0 mi NW 11.5 mph 17.3 mph N/A   Overcast
10:35 PM 10.4 °F -3.3 °F 3.2 °F 73% 30.05 in 10.0 mi NW 10.4 mph 17.3 mph N/A   Overcast
10:55 PM 10.4 °F -3.3 °F 1.4 °F 67% 30.04 in 10.0 mi NW 10.4 mph 18.4 mph N/A   Overcast
11:15 PM 10.4 °F -4.1 °F 1.4 °F 67% 30.04 in 10.0 mi NW 11.5 mph - N/A   Overcast
11:35 PM 10.4 °F -4.8 °F 1.4 °F 67% 30.05 in 10.0 mi NW 12.7 mph - N/A Snow Light Snow
11:55 PM 8.6 °F -8.3 °F 1.4 °F 73% 30.04 in 10.0 mi NNW 15.0 mph - N/A   Overcast